STARLINK-36096

Last updated on Fri Dec 19 2025 00:02:08 GMT+0000 (Coordinated Universal Time)

1 66949U 25286AA 25352.58336806 -.01466530 00000+0 -77298-2 0 9994 2 66949 53.1551 20.9682 0000917 66.3863 89.6867 15.82631992 2936
UTC large
Height (km)
Speed (km/s)
/
Latitude / Longitude
Inclination (degrees)
Orbital Period (minutes)
Azimuth
Elevation
Range (km)
Doppler Factor

Next 0 passes for location: London (51.5072 / 0.1276)

Sorry there are no passes over London.